Location: Lac Echo
(45.9375°N, 75.4580°W)
Time: 11:05:46
(UTC-04:00)

Amateur Radio Satellites - All Passes

Search period start: 28 August 2014 10:35
Search period end: 29 August 2014 10:35
Location: Lac Echo, 45.9375°N, 75.4580°W

Satellite Date Start Highest point End Downlink Frequencies (MHz)
Time Altitude Azimuth
SO-50 28 Aug 11:21:11 11:24:12 16° 30° (NNE) 11:27:15 436.795 FM
HO-68 28 Aug 11:25:40 11:32:20 44° 297° (WNW) 11:39:00 435.675 MHz FM
UKube-1 28 Aug 11:30:11 11:34:02 31° 293° (WNW) 11:37:51 145.840 MHz, 145.915 MHz
Oscar 11 28 Aug 11:39:05 11:43:07 37° 291° (WNW) 11:47:07 145.825 FM, Beacon 2401.500 USB
KITSAT 1 28 Aug 11:47:04 11:50:40 14° 262° (W) 11:54:16 435.175 FM
FUNcube-1 28 Aug 11:56:51 12:01:16 59° 287° (WNW) 12:05:45 145.950 - 145.970 MHz USB
Oscar 16 28 Aug 12:13:24 12:16:42 17° 58° (ENE) 12:20:01 437.025 USB, Beacon 2401.1428
ISS 28 Aug 12:14:29 12:17:41 48° 145° (SE) 12:20:55 145.800 FM
AO-Echo 28 Aug 12:30:08 12:31:26 11° 56° (NE) 12:32:43 ?
AO-27 28 Aug 12:34:52 12:37:02 13° 55° (NE) 12:39:12 436.795 MHz FM
JAS-1B 28 Aug 12:41:24 12:48:58 28° 55° (NE) 12:55:54 435.800 - 435.900 CW/SSB
RS-15 28 Aug 12:43:10 12:52:23 30° 350° (N) 13:01:43 29.354 - 29.394 USB, Beacon 29.352 USB
MaSat-1 28 Aug 12:55:06 12:57:05 12° 98° (E) 12:59:06 437.345 MHz
SO-50 28 Aug 13:00:53 13:05:39 68° 51° (NE) 13:10:28 436.795 FM
Oscar 19 28 Aug 13:16:02 13:21:03 54° 70° (ENE) 13:26:06 437.125 CW, 437.150 USB
HO-68 28 Aug 13:17:06 13:18:15 10° 319° (NW) 13:19:25 435.675 MHz FM
UOSAT-12 28 Aug 13:35:40 13:39:20 22° 35° (NE) 13:42:58 437.025 FM, 437.400 FM
TMSAT-1 28 Aug 13:39:47 13:42:56 16° 57° (ENE) 13:46:06 436.925 FM
ITAMSAT 1 28 Aug 13:42:33 13:47:26 44° 68° (ENE) 13:52:19 435.822 SSB
Oscar 16 28 Aug 13:50:19 13:55:28 75° 257° (WSW) 14:00:40 437.025 USB, Beacon 2401.1428
ISS 28 Aug 13:51:19 13:54:30 40° 344° (NNW) 13:57:41 145.800 FM
Uribyol 2 28 Aug 13:53:01 13:58:03 57° 70° (ENE) 14:03:06 436.500 FM
AO-Echo 28 Aug 14:04:20 14:09:23 72° 74° (ENE) 14:14:17 ?
AO-7 28 Aug 14:04:55 14:10:17 19° 44° (NE) 14:15:38 29.400 - 29.500 MHz
AO-27 28 Aug 14:10:32 14:15:42 77° 73° (ENE) 14:20:54 436.795 MHz FM
Gurwin Techsat 1B 28 Aug 14:23:53 14:28:57 47° 69° (ENE) 14:34:02 435.225 FM
MaSat-1 28 Aug 14:28:20 14:33:15 85° 117° (ESE) 14:38:28 437.345 MHz
JAS-1B 28 Aug 14:28:43 14:38:36 89° 254° (WSW) 14:47:31 435.800 - 435.900 CW/SSB
SO-50 28 Aug 14:42:29 14:45:45 18° 249° (WSW) 14:49:02 436.795 FM
Uosat F 28 Aug 14:55:00 14:57:53 16° 57° (ENE) 15:00:46 435.120 FM
Oscar 19 28 Aug 14:56:49 15:00:43 22° 268° (W) 15:04:40 437.125 CW, 437.150 USB
RS-15 28 Aug 14:58:58 15:08:52 36° 25° (NNE) 15:18:57 29.354 - 29.394 USB, Beacon 29.352 USB
UOSAT-12 28 Aug 15:15:17 15:20:02 78° 236° (SW) 15:24:42 437.025 FM, 437.400 FM
TMSAT-1 28 Aug 15:16:53 15:22:11 84° 256° (WSW) 15:27:31 436.925 FM
ITAMSAT 1 28 Aug 15:22:46 15:27:05 27° 266° (W) 15:31:26 435.822 SSB
ISS 28 Aug 15:28:46 15:31:46 30° 4° (N) 15:34:45 145.800 FM
Uribyol 2 28 Aug 15:34:07 15:37:53 20° 268° (W) 15:41:41 436.500 FM
AO-Echo 28 Aug 15:45:46 15:48:38 15° 270° (W) 15:51:29 ?
AO-27 28 Aug 15:52:57 15:55:49 15° 271° (W) 15:58:41 436.795 MHz FM
AO-7 28 Aug 15:53:23 16:01:38 68° 66° (ENE) 16:09:53 29.400 - 29.500 MHz
Gurwin Techsat 1B 28 Aug 16:04:47 16:09:08 25° 267° (W) 16:13:31 435.225 FM
MaSat-1 28 Aug 16:07:21 16:11:01 20° 317° (NW) 16:14:46 437.345 MHz
JAS-2 28 Aug 16:07:24 16:07:56 10° 53° (NE) 16:08:27 435.800 - 435.900 CW/SSB, 435.910 FM
JAS-1B 28 Aug 16:22:30 16:29:55 24° 272° (W) 16:36:54 435.800 - 435.900 CW/SSB
PCSat 28 Aug 16:29:32 16:31:43 13° 102° (ESE) 16:33:55 145.825 MHz
Uosat F 28 Aug 16:31:01 16:36:02 82° 256° (WSW) 16:41:04 435.120 FM
UOSAT-12 28 Aug 16:58:32 16:59:21 10° 254° (WSW) 17:00:11 437.025 FM, 437.400 FM
TMSAT-1 28 Aug 17:01:11 17:02:54 12° 274° (W) 17:04:38 436.925 FM
ISS 28 Aug 17:05:35 17:08:54 63° 24° (NNE) 17:12:13 145.800 FM
RS-15 28 Aug 17:11:54 17:23:00 83° 53° (NE) 17:34:32 29.354 - 29.394 USB, Beacon 29.352 USB
Sapphire 28 Aug 17:39:28 17:44:35 45° 114° (ESE) 17:49:44 437.095 MHz 1200 baud AX-25 AFSK
Hamsat 28 Aug 17:39:51 17:43:59 47° 71° (ENE) 17:48:10 145.90 MHz
Oscar 10/S400 28 Aug 17:40:44 17:56:01 28° 144° (SE) 18:19:53 145.825 - 145.975 CW/USB, Beacon 145.810 USB
OPAL 28 Aug 17:41:21 17:46:36 73° 105° (ESE) 17:51:48 ?
JAS-2 28 Aug 17:46:00 17:52:05 59° 71° (ENE) 17:57:33 435.800 - 435.900 CW/SSB, 435.910 FM
AO-7 28 Aug 17:47:57 17:55:00 30° 266° (W) 18:02:07 29.400 - 29.500 MHz
PCSat 28 Aug 18:08:51 18:14:15 82° 120° (ESE) 18:19:43 145.825 MHz
Uosat F 28 Aug 18:14:51 18:15:36 10° 273° (W) 18:16:21 435.120 FM
SO-67 28 Aug 18:39:22 18:42:20 27° 70° (ENE) 18:45:19 435.3500 MHz FM
ISS 28 Aug 18:42:41 18:45:26 24° 222° (SW) 18:48:10 145.800 FM
Hamsat 28 Aug 19:17:13 19:20:12 18° 269° (W) 19:23:14 145.90 MHz
OPAL 28 Aug 19:21:22 19:24:55 19° 304° (WNW) 19:28:28 ?
STRAND 1 28 Aug 19:21:23 19:26:04 36° 97° (E) 19:30:45 ?
Sapphire 28 Aug 19:23:15 19:28:09 34° 314° (NW) 19:33:05 437.095 MHz 1200 baud AX-25 AFSK
RS-15 28 Aug 19:25:13 19:34:12 30° 256° (WSW) 19:43:31 29.354 - 29.394 USB, Beacon 29.352 USB
JAS-2 28 Aug 19:32:47 19:37:30 23° 267° (W) 19:41:53 435.800 - 435.900 CW/SSB, 435.910 FM
PCSat 28 Aug 19:54:09 19:58:20 22° 322° (NW) 20:02:33 145.825 MHz
HO-68 28 Aug 20:09:03 20:15:38 42° 62° (ENE) 20:22:13 435.675 MHz FM
SO-67 28 Aug 20:12:47 20:15:24 20° 267° (W) 20:18:02 435.3500 MHz FM
UKube-1 28 Aug 20:51:55 20:55:49 34° 68° (ENE) 20:59:44 145.840 MHz, 145.915 MHz
STRAND 1 28 Aug 21:00:42 21:05:12 32° 295° (WNW) 21:09:41 ?
Oscar 11 28 Aug 21:00:49 21:04:24 26° 66° (ENE) 21:08:00 145.825 FM, Beacon 2401.500 USB
Sapphire 28 Aug 21:12:03 21:13:19 11° 338° (NNW) 21:14:36 437.095 MHz 1200 baud AX-25 AFSK
FUNcube-1 28 Aug 21:21:12 21:23:54 17° 62° (ENE) 21:26:39 145.950 - 145.970 MHz USB
HO-68 28 Aug 21:56:32 22:03:17 45° 261° (W) 22:10:05 435.675 MHz FM
UKube-1 28 Aug 22:28:27 22:32:04 26° 265° (W) 22:35:43 145.840 MHz, 145.915 MHz
KITSAT 1 28 Aug 22:29:54 22:33:06 13° 97° (E) 22:36:18 435.175 FM
AO-40 28 Aug 22:34:35 04:30:53 36° 179° (S) 07:15:07 Beacon 2401.320
Oscar 11 28 Aug 22:36:31 22:40:27 34° 263° (W) 22:44:26 145.825 FM, Beacon 2401.500 USB
MaSat-1 28 Aug 22:44:03 22:48:34 39° 53° (NE) 22:52:34 437.345 MHz
FUNcube-1 28 Aug 22:55:51 22:59:55 52° 260° (W) 23:04:05 145.950 - 145.970 MHz USB
Saudisat 1A 28 Aug 23:35:44 23:40:02 55° 121° (ESE) 23:44:22 436.775 MHz
KITSAT 1 29 Aug 00:18:57 00:26:54 64° 117° (ESE) 00:34:53 435.175 FM
MaSat-1 29 Aug 00:21:33 00:25:23 26° 255° (WSW) 00:28:49 437.345 MHz
Sapphire 29 Aug 00:42:19 00:45:39 16° 32° (NNE) 00:48:58 437.095 MHz 1200 baud AX-25 AFSK
PCSat 29 Aug 01:11:37 01:15:58 24° 40° (NE) 01:20:17 145.825 MHz
Saudisat 1A 29 Aug 01:16:16 01:19:55 25° 321° (NW) 01:23:35 436.775 MHz
Oscar 19 29 Aug 01:26:26 01:29:33 16° 89° (E) 01:32:40 437.125 CW, 437.150 USB
ITAMSAT 1 29 Aug 01:54:51 01:56:57 12° 87° (E) 01:59:02 435.822 SSB
Oscar 16 29 Aug 01:59:50 02:04:30 32° 96° (E) 02:09:08 437.025 USB, Beacon 2401.1428
Uribyol 2 29 Aug 02:04:25 02:07:40 17° 90° (E) 02:10:55 436.500 FM
AO-Echo 29 Aug 02:10:11 02:13:21 18° 91° (E) 02:16:29 ?
JAS-1B 29 Aug 02:14:56 02:19:55 21° 86° (E) 02:24:24 435.800 - 435.900 CW/SSB
KITSAT 1 29 Aug 02:15:17 02:22:47 40° 320° (NW) 02:30:19 435.175 FM
AO-27 29 Aug 02:21:47 02:25:50 23° 93° (E) 02:29:53 436.795 MHz FM
Sapphire 29 Aug 02:24:47 02:30:11 63° 54° (NE) 02:35:34 437.095 MHz 1200 baud AX-25 AFSK
Gurwin Techsat 1B 29 Aug 02:38:52 02:41:56 15° 89° (E) 02:45:00 435.225 FM
PCSat 29 Aug 02:54:32 02:59:58 76° 240° (WSW) 03:05:22 145.825 MHz
Oscar 19 29 Aug 03:04:15 03:09:28 73° 287° (WNW) 03:14:38 437.125 CW, 437.150 USB
OPAL 29 Aug 03:21:18 03:25:25 26° 60° (ENE) 03:29:35 ?
SO-50 29 Aug 03:21:52 03:23:00 11° 107° (ESE) 03:24:09 436.795 FM
TMSAT-1 29 Aug 03:30:33 03:35:18 32° 95° (E) 03:40:01 436.925 FM
ITAMSAT 1 29 Aug 03:31:57 03:37:10 90° 286° (WNW) 03:42:21 435.822 SSB
Oscar 16 29 Aug 03:39:08 03:43:52 37° 294° (WNW) 03:48:36 437.025 USB, Beacon 2401.1428
Uribyol 2 29 Aug 03:42:30 03:47:40 70° 288° (WNW) 03:52:50 436.500 FM
AO-Echo 29 Aug 03:47:54 03:52:30 55° 289° (WNW) 03:57:05 ?
AO-7 29 Aug 03:53:52 03:59:03 18° 88° (E) 04:04:10 29.400 - 29.500 MHz
AO-27 29 Aug 04:00:37 04:05:39 51° 290° (WNW) 04:10:39 436.795 MHz FM
JAS-1B 29 Aug 04:04:24 04:11:31 69° 290° (WNW) 04:17:32 435.800 - 435.900 CW/SSB
Sapphire 29 Aug 04:09:05 04:13:09 22° 253° (WSW) 04:17:12 437.095 MHz 1200 baud AX-25 AFSK
KITSAT 1 29 Aug 04:15:19 04:20:48 19° 348° (NNW) 04:26:17 435.175 FM
Gurwin Techsat 1B 29 Aug 04:17:11 04:22:31 77° 287° (WNW) 04:27:49 435.225 FM
Uosat F 29 Aug 04:36:47 04:40:55 25° 94° (E) 04:45:02 435.120 FM
PCSat 29 Aug 04:40:54 04:42:26 11° 259° (WSW) 04:43:57 145.825 MHz
Oscar 19 29 Aug 04:45:58 04:47:54 12° 306° (NW) 04:49:50 437.125 CW, 437.150 USB
SO-50 29 Aug 04:58:17 05:02:46 85° 126° (SE) 05:07:24 436.795 FM
OPAL 29 Aug 04:59:08 05:04:01 48° 258° (WSW) 05:09:00 ?
STRAND 1 29 Aug 05:05:16 05:06:27 11° 53° (NE) 05:07:38 ?
TMSAT-1 29 Aug 05:10:24 05:15:15 37° 293° (WNW) 05:20:05 436.925 FM
ITAMSAT 1 29 Aug 05:13:09 05:15:56 15° 304° (NW) 05:18:42 435.822 SSB
Uribyol 2 29 Aug 05:24:33 05:26:13 12° 306° (NW) 05:27:54 436.500 FM
UOSAT-12 29 Aug 05:30:11 05:33:17 18° 111° (ESE) 05:36:25 437.025 FM, 437.400 FM
AO-7 29 Aug 05:44:45 05:53:06 81° 108° (ESE) 06:01:23 29.400 - 29.500 MHz
JAS-1B 29 Aug 05:56:53 06:00:34 15° 315° (NW) 06:04:00 435.800 - 435.900 CW/SSB
Gurwin Techsat 1B 29 Aug 05:59:18 06:01:37 13° 305° (NW) 06:03:56 435.225 FM
KITSAT 1 29 Aug 06:13:51 06:19:43 21° 18° (NNE) 06:25:34 435.175 FM
Uosat F 29 Aug 06:15:09 06:19:53 43° 292° (WNW) 06:24:36 435.120 FM
Saudisat 1A 29 Aug 06:21:23 06:24:27 18° 34° (NNE) 06:27:30 436.775 MHz
JAS-2 29 Aug 06:36:55 06:41:46 38° 98° (E) 06:46:50 435.800 - 435.900 CW/SSB, 435.910 FM
STRAND 1 29 Aug 06:39:38 06:44:41 67° 72° (ENE) 06:49:46 ?
SO-50 29 Aug 06:40:39 06:43:58 19° 326° (NNW) 06:47:20 436.795 FM
Hamsat 29 Aug 06:58:51 07:03:13 70° 102° (ESE) 07:07:32 145.90 MHz
UOSAT-12 29 Aug 07:08:19 07:12:56 66° 309° (NW) 07:17:39 437.025 FM, 437.400 FM
SO-67 29 Aug 07:33:36 07:36:25 23° 94° (E) 07:39:13 435.3500 MHz FM
AO-7 29 Aug 07:38:25 07:45:06 28° 309° (NW) 07:51:45 29.400 - 29.500 MHz
RS-15 29 Aug 07:39:04 07:48:59 40° 109° (ESE) 07:58:46 29.354 - 29.394 USB, Beacon 29.352 USB
Saudisat 1A 29 Aug 08:00:13 08:04:40 90° 236° (SW) 08:09:04 436.775 MHz
KITSAT 1 29 Aug 08:09:29 08:17:19 50° 45° (NE) 08:25:06 435.175 FM
STRAND 1 29 Aug 08:21:08 08:24:22 17° 270° (W) 08:27:37 ?
JAS-2 29 Aug 08:22:21 08:26:50 30° 295° (WNW) 08:31:30 435.800 - 435.900 CW/SSB, 435.910 FM
Hamsat 29 Aug 08:36:20 08:38:38 14° 299° (WNW) 08:40:55 145.90 MHz
UOSAT-12 29 Aug 08:51:04 08:54:00 16° 331° (NNW) 08:56:57 437.025 FM, 437.400 FM
SO-67 29 Aug 09:06:35 09:09:25 24° 291° (WNW) 09:12:13 435.3500 MHz FM
HO-68 29 Aug 09:21:14 09:27:34 33° 95° (E) 09:33:51 435.675 MHz FM
Saudisat 1A 29 Aug 09:42:09 09:43:32 11° 252° (WSW) 09:44:56 436.775 MHz
RS-15 29 Aug 09:49:47 10:00:45 67° 313° (NW) 10:11:40 29.354 - 29.394 USB, Beacon 29.352 USB
KITSAT 1 29 Aug 10:05:06 10:12:44 48° 247° (WSW) 10:20:19 435.175 FM
UKube-1 29 Aug 10:13:26 10:17:35 43° 99° (E) 10:21:43 145.840 MHz, 145.915 MHz
Oscar 11 29 Aug 10:21:23 10:25:25 35° 97° (E) 10:29:26 145.825 FM, Beacon 2401.500 USB
